GW3708 Weather Reports


time (UTC)temp
C
wind
direction
speed
KPH
gust
KPH
rain 1hr
cm
rain 24hr
cm
rain mn
cm
humidity
%
barometer
mb
20260506202502 15 229 6.4 11.3 0.03 0.03 0.03 85 1007.9
20260506202004 15 241 6.4 11.3 0.03 0.03 0.03 85 1007.9
20260506201504 15 246 6.4 12.9 0.03 0.03 0.03 85 1007.9
20260506201004 15 247 6.4 14.5 0.03 0.03 0.03 85 1007.9
20260506200504 15 259 6.4 14.5 0.03 0.03 0.03 85 1008.0
20260506200006 15 237 6.4 12.9 0.03 0.03 0.03 85 1008.0
20260506195504 15 234 6.4 12.9 0.03 0.03 0.03 85 1008.1
20260506195005 15 238 8.0 12.9 0.03 0.03 0.03 84 1008.1
20260506194509 15 240 6.4 14.5 0.03 0.03 0.03 84 1008.1
20260506194007 15 252 8.0 14.5 0.03 0.03 0.03 85 1008.3
20260506193504 15 231 8.0 16.1 0.00 0.00 0.00 85 1008.4
20260506193033 15 235 6.4 16.1 0.00 0.00 0.00 85 1008.5
20260506192507 15 212 8.0 16.1 0.00 0.00 0.00 86 1008.5
20260506192006 15 252 6.4 16.1 0.00 0.00 0.00 86 1008.7
20260506191518 15 255 8.0 16.1 0.00 0.00 0.00 86 1008.8
20260506191002 14 244 6.4 11.3 0.00 0.00 0.00 87 1008.8
20260506190507 14 221 6.4 11.3 0.00 0.00 0.00 87 1008.9
20260506190007 14 240 6.4 9.7 0.00 0.00 0.00 86 1009.0
20260506185505 14 247 6.4 14.5 0.00 0.00 0.00 86 1009.0
20260506185002 14 245 8.0 16.1 0.00 0.00 0.00 86 1008.9
20260506184507 14 250 8.0 16.1 0.00 0.00 0.00 86 1009.0
20260506184003 14 240 8.0 16.1 0.00 0.00 0.00 85 1009.2
20260506183507 14 239 9.7 16.1 0.00 0.00 0.00 85 1009.2
20260506183013 14 224 9.7 14.5 0.00 0.00 0.00 85 1009.3
20260506182511 14 255 8.0 14.5 0.00 0.00 0.00 85 1009.4
20260506182006 14 229 8.0 16.1 0.00 0.00 0.00 84 1009.4
20260506181527 14 234 8.0 16.1 0.00 0.00 0.00 84 1009.5
20260506181006 15 232 8.0 12.9 0.00 0.00 0.00 83 1009.6
20260506180506 15 236 8.0 14.5 0.00 0.00 0.00 82 1009.7
20260506180020 15 255 9.7 14.5 0.00 0.00 0.00 82 1009.8
20260506175502 15 225 8.0 14.5 0.00 0.00 0.00 81 1009.9
20260506175003 15 239 9.7 14.5 0.00 0.00 0.00 80 1010.0
20260506174506 15 240 9.7 16.1 0.00 0.00 0.00 80 1010.0
20260506174003 15 250 9.7 17.7 0.00 0.00 0.00 79 1009.9
20260506173506 16 250 12.9 17.7 0.00 0.00 0.00 79 1010.0
20260506173012 16 236 9.7 17.7 0.00 0.00 0.00 79 1010.0
20260506172503 16 274 9.7 14.5 0.00 0.00 0.00 79 1010.1
20260506172006 16 249 9.7 14.5 0.00 0.00 0.00 79 1010.1
20260506171512 16 95 8.0 14.5 0.00 0.00 0.00 79 1010.1
20260506171008 16 244 8.0 14.5 0.00 0.00 0.00 79 1010.1
20260506170505 16 247 8.0 12.9 0.00 0.00 0.00 79 1010.3
20260506170030 16 251 8.0 14.5 0.00 0.00 0.00 79 1010.3
20260506165506 16 252 9.7 16.1 0.00 0.00 0.00 79 1010.4
20260506165007 16 240 9.7 17.7 0.00 0.00 0.00 79 1010.4
20260506164542 16 246 9.7 17.7 0.00 0.00 0.00 79 1010.4
20260506164003 16 232 11.3 16.1 0.00 0.00 0.00 79 1010.3
20260506163503 16 258 11.3 16.1 0.00 0.00 0.00 79 1010.4
20260506163013 16 241 9.7 17.7 0.00 0.00 0.00 79 1010.3
20260506162508 16 221 9.7 19.3 0.00 0.00 0.00 78 1010.4
20260506162003 16 262 12.9 25.7 0.00 0.00 0.00 78 1010.3
20260506161512 16 227 11.3 25.7 0.00 0.00 0.00 78 1010.8
20260506161008 16 252 11.3 17.7 0.00 0.00 0.00 79 1010.7
20260506160507 16 244 12.9 17.7 0.00 0.00 0.00 79 1010.9
20260506160016 16 240 11.3 19.3 0.00 0.00 0.00 79 1010.9
20260506155506 16 219 9.7 19.3 0.00 0.00 0.00 80 1010.9
20260506155007 16 235 9.7 16.1 0.00 0.00 0.00 80 1011.0
20260506154524 16 238 9.7 17.7 0.00 0.00 0.00 79 1010.9
20260506154008 16 225 9.7 19.3 0.00 0.00 0.00 79 1011.0
20260506153514 16 224 11.3 19.3 0.00 0.00 0.00 79 1011.1
20260506153027 16 226 11.3 19.3 0.00 0.00 0.00 79 1011.0
20260506152503 16 229 9.7 17.7 0.00 0.00 0.00 78 1010.9
20260506152003 16 236 11.3 17.7 0.00 0.00 0.00 78 1011.1
20260506151508 16 228 9.7 16.1 0.00 0.00 0.00 78 1011.3
20260506151003 16 242 11.3 16.1 0.00 0.00 0.00 77 1011.1
20260506150503 17 258 9.7 16.1 0.00 0.00 0.00 77 1011.1
20260506150015 16 267 8.0 17.7 0.00 0.00 0.00 78 1011.1
20260506145507 16 225 11.3 17.7 0.00 0.00 0.00 78 1011.1
20260506145008 16 242 9.7 16.1 0.00 0.00 0.00 79 1011.0
20260506144526 16 228 9.7 16.1 0.00 0.00 0.00 79 1011.2
20260506144013 16 238 9.7 16.1 0.00 0.00 0.00 79 1011.2
20260506143508 16 227 8.0 17.7 0.00 0.00 0.00 80 1011.4
20260506143024 16 243 11.3 17.7 0.00 0.00 0.00 80 1011.5
20260506142513 16 225 9.7 17.7 0.00 0.00 0.00 80 1011.5
20260506142009 16 246 9.7 17.7 0.00 0.00 0.00 79 1011.4
20260506141530 16 208 8.0 17.7 0.00 0.00 0.00 79 1011.3
20260506141003 16 261 9.7 16.1 0.00 0.00 0.00 79 1011.4
20260506140504 16 236 11.3 16.1 0.00 0.00 0.00 79 1011.3
20260506140010 16 254 9.7 19.3 0.00 0.00 0.00 79 1011.2
20260506135503 16 243 9.7 19.3 0.00 0.00 0.00 79 1011.2
20260506135003 16 232 11.3 16.1 0.00 0.00 0.00 78 1011.2
20260506134516 16 223 9.7 16.1 0.00 0.00 0.00 79 1011.1
20260506134007 16 244 9.7 16.1 0.00 0.00 0.00 80 1011.3
20260506133509 16 242 9.7 16.1 0.00 0.00 0.00 79 1011.2
20260506133027 16 232 9.7 16.1 0.00 0.00 0.00 79 1011.2
20260506132509 16 240 8.0 16.1 0.00 0.00 0.00 80 1011.0
20260506132008 16 250 9.7 16.1 0.00 0.00 0.00 79 1011.1
20260506131522 16 240 8.0 16.1 0.00 0.00 0.00 80 1011.4
20260506131008 16 233 9.7 14.5 0.00 0.00 0.00 79 1011.2
20260506130513 16 236 8.0 14.5 0.00 0.00 0.00 79 1011.6
20260506130026 16 188 9.7 16.1 0.00 0.00 0.00 80 1011.6
20260506125507 16 250 8.0 16.1 0.00 0.00 0.00 80 1011.5
20260506125005 16 234 9.7 14.5 0.00 0.00 0.00 80 1011.5
20260506124514 16 222 8.0 16.1 0.00 0.00 0.00 81 1011.5
20260506124007 15 247 9.7 16.1 0.00 0.00 0.00 81 1011.6
20260506123508 15 252 9.7 14.5 0.00 0.00 0.00 81 1011.6
20260506123020 15 262 8.0 14.5 0.00 0.00 0.00 82 1011.6
20260506122507 15 237 9.7 14.5 0.00 0.00 0.00 82 1011.5
20260506122010 15 233 9.7 14.5 0.00 0.00 0.00 82 1011.4
20260506121524 15 197 9.7 14.5 0.00 0.00 0.00 82 1011.4
20260506121009 15 228 9.7 16.1 0.00 0.00 0.00 82 1011.5
20260506120509 15 232 9.7 16.1 0.00 0.00 0.00 83 1011.6
20260506120047 15 266 9.7 14.5 0.00 0.00 0.00 83 1011.6
20260506115507 15 236 9.7 14.5 0.00 0.00 0.00 83 1011.6
20260506115011 15 232 9.7 14.5 0.00 0.00 0.00 83 1011.5
20260506114513 15 198 9.7 16.1 0.00 0.00 0.00 83 1011.7
20260506114010 14 242 8.0 16.1 0.00 0.00 0.00 84 1011.6
20260506113508 14 252 8.0 14.5 0.00 0.00 0.00 84 1011.6
20260506113016 14 231 9.7 14.5 0.00 0.00 0.00 84 1011.7
20260506112502 14 213 8.0 14.5 0.00 0.00 0.00 84 1011.7
20260506112002 14 225 8.0 16.1 0.00 0.00 0.00 84 1011.6
20260506111503 14 234 9.7 16.1 0.00 0.00 0.00 85 1011.6
20260506111004 14 213 9.7 14.5 0.00 0.00 0.00 85 1011.6
20260506110504 13 236 8.0 14.5 0.00 0.00 0.00 85 1011.4
20260506110008 13 220 8.0 14.5 0.00 0.00 0.00 85 1011.3
20260506105505 13 235 8.0 14.5 0.00 0.00 0.00 86 1011.6
20260506105005 13 201 9.7 14.5 0.00 0.00 0.00 86 1011.6
20260506104513 13 242 9.7 14.5 0.00 0.00 0.00 86 1011.5
20260506104009 13 236 9.7 14.5 0.00 0.00 0.00 85 1011.5
20260506103505 13 249 8.0 16.1 0.00 0.00 0.00 85 1011.5
20260506103034 13 246 8.0 16.1 0.00 0.00 0.00 85 1011.4
20260506102511 13 236 8.0 16.1 0.00 0.00 0.00 86 1011.3
20260506102008 13 213 8.0 16.1 0.00 0.00 0.00 86 1011.3
20260506101519 13 259 8.0 16.1 0.00 0.00 0.00 86 1011.2
20260506101002 13 227 9.7 16.1 0.00 0.00 0.00 86 1011.3
20260506100502 13 241 8.0 14.5 0.00 0.00 0.00 86 1011.2
20260506100005 13 200 8.0 14.5 0.00 0.00 0.00 86 1011.2
20260506095503 13 238 8.0 16.1 0.00 0.00 0.00 86 1011.3
20260506095004 13 236 8.0 16.1 0.00 0.00 0.00 86 1011.2
20260506094510 13 248 8.0 12.9 0.00 0.00 0.00 86 1011.3
20260506094003 13 227 8.0 17.7 0.00 0.00 0.00 86 1011.3
20260506093503 13 230 9.7 17.7 0.00 0.00 0.00 85 1011.3
20260506093020 13 236 9.7 16.1 0.00 0.00 0.00 85 1011.4
20260506092503 13 242 9.7 14.5 0.00 0.00 0.00 86 1011.3
20260506092007 13 231 8.0 14.5 0.00 0.00 0.00 86 1011.3
20260506091519 13 234 8.0 14.5 0.00 0.00 0.00 85 1011.2
20260506091010 13 232 8.0 16.1 0.00 0.00 0.00 85 1011.3
20260506090507 13 233 9.7 19.3 0.00 0.00 0.00 85 1011.3
20260506090021 13 249 8.0 19.3 0.00 0.00 0.00 85 1011.5
20260506085503 13 236 8.0 12.9 0.00 0.00 0.00 85 1011.5
20260506085004 13 234 8.0 12.9 0.00 0.00 0.00 85 1011.6
20260506084511 13 243 8.0 12.9 0.00 0.00 0.00 85 1011.6
20260506084003 13 205 8.0 14.5 0.00 0.00 0.00 85 1011.7
20260506083504 13 237 8.0 14.5 0.00 0.00 0.00 85 1011.6
20260506083010 13 236 8.0 14.5 0.00 0.00 0.00 85 1011.6
20260506082506 14 247 8.0 16.1 0.00 0.00 0.00 85 1011.6
20260506082004 14 211 9.7 17.7 0.00 0.00 0.00 85 1011.5
20260506081518 14 227 9.7 17.7 0.00 0.00 0.00 85 1011.5
20260506081010 14 233 8.0 14.5 0.00 0.00 0.00 84 1011.5
20260506080505 14 225 9.7 16.1 0.00 0.00 0.00 84 1011.6
20260506073502 14 223 9.7 16.1 0.00 0.00 0.00 84 1011.7
20260506073010 14 229 9.7 16.1 0.00 0.00 0.00 84 1011.6
20260506072506 14 233 9.7 17.7 0.00 0.00 0.00 83 1011.7
20260506072008 14 232 9.7 17.7 0.00 0.00 0.00 84 1011.7
20260506071517 14 236 9.7 19.3 0.00 0.00 0.00 84 1011.5
20260506071005 14 238 8.0 19.3 0.00 0.00 0.00 84 1011.7
20260506070506 14 253 9.7 16.1 0.00 0.00 0.00 84 1011.6
20260506062502 14 250 9.7 16.1 0.00 0.00 0.00 84 1011.6
20260506062002 14 249 9.7 17.7 0.00 0.00 0.00 84 1011.6
20260506061510 14 189 9.7 17.7 0.00 0.00 0.00 84 1011.6
20260506061005 14 234 9.7 16.1 0.00 0.00 0.00 84 1011.7
20260506060505 14 237 9.7 16.1 0.00 0.00 0.00 84 1011.7
20260506051003 14 244 9.7 16.1 0.00 0.00 0.00 83 1012.0
20260506050502 14 229 11.3 17.7 0.00 0.00 0.00 83 1012.1
20260506045007 14 263 9.7 16.1 0.00 0.00 0.00 83 1012.0
20260506044521 15 246 9.7 16.1 0.00 0.00 0.00 83 1012.2
20260506044007 15 249 9.7 16.1 0.00 0.00 0.00 83 1012.3
20260506043509 15 236 9.7 16.1 0.00 0.00 0.00 83 1012.3
20260506043024 15 263 9.7 16.1 0.00 0.00 0.00 83 1012.3
20260506042510 15 249 11.3 16.1 0.00 0.00 0.00 82 1012.3
20260506042012 15 211 11.3 16.1 0.00 0.00 0.00 82 1012.2
20260506041528 15 229 11.3 16.1 0.00 0.00 0.00 82 1012.3
20260506041010 15 221 9.7 16.1 0.00 0.00 0.00 82 1012.2
20260506040509 15 248 11.3 16.1 0.00 0.00 0.00 82 1012.3
20260506040033 15 246 9.7 14.5 0.00 0.00 0.00 81 1012.2
20260506035503 15 238 9.7 16.1 0.00 0.00 0.00 81 1012.2
20260506035004 15 244 9.7 17.7 0.00 0.00 0.00 80 1012.2
20260506034517 15 256 11.3 17.7 0.00 0.00 0.00 80 1012.2
20260506034006 15 252 11.3 20.9 0.00 0.00 0.00 80 1012.2
20260506033508 15 239 9.7 20.9 0.00 0.00 0.00 79 1012.2
20260506033020 15 246 9.7 16.1 0.00 0.00 0.00 79 1012.1
20260506032509 15 227 11.3 16.1 0.00 0.00 0.00 80 1012.1
20260506032010 15 231 9.7 14.5 0.00 0.00 0.00 80 1012.0
20260506031524 15 255 9.7 14.5 0.00 0.00 0.00 80 1012.0
20260506031007 15 248 9.7 17.7 0.00 0.00 0.00 79 1012.0
20260506030507 15 242 8.0 17.7 0.00 0.00 0.00 79 1012.0
20260506030028 15 244 9.7 17.7 0.00 0.00 0.00 79 1011.9
20260506025512 15 245 9.7 17.7 0.00 0.00 0.00 79 1012.0
20260506025012 15 226 8.0 17.7 0.00 0.00 0.00 79 1012.0
20260506024526 15 224 8.0 14.5 0.00 0.00 0.00 79 1012.0
20260506024008 15 231 9.7 14.5 0.00 0.00 0.00 79 1012.0
20260506023508 15 243 9.7 16.1 0.00 0.00 0.00 79 1011.9
20260506023034 15 236 9.7 16.1 0.00 0.00 0.00 78 1011.9
20260506022507 15 232 9.7 14.5 0.00 0.00 0.00 78 1012.0
20260506022012 15 256 9.7 16.1 0.00 0.00 0.00 78 1011.9
20260506021536 15 239 9.7 16.1 0.00 0.00 0.00 77 1011.8
20260506021009 15 224 9.7 17.7 0.00 0.00 0.00 77 1011.9
20260506020509 15 227 9.7 17.7 0.00 0.00 0.00 77 1011.8
20260506020006 15 227 9.7 17.7 0.00 0.00 0.00 77 1011.8
20260506015503 15 236 11.3 17.7 0.00 0.00 0.00 77 1011.8
20260506015003 15 234 9.7 16.1 0.00 0.00 0.00 77 1011.8
20260506014513 15 227 9.7 16.1 0.00 0.00 0.00 76 1011.8
20260506014004 15 251 9.7 16.1 0.00 0.00 0.00 76 1011.7
20260506013504 15 260 11.3 16.1 0.00 0.00 0.00 76 1011.6
20260506013021 15 234 11.3 16.1 0.00 0.00 0.00 76 1011.7
20260506012507 15 240 11.3 16.1 0.00 0.00 0.00 76 1011.5
20260506012008 15 233 11.3 17.7 0.00 0.00 0.00 75 1011.5
20260506011523 15 236 11.3 17.7 0.00 0.00 0.00 75 1011.5
20260506011003 15 251 11.3 17.7 0.00 0.00 0.00 76 1011.4
20260506010504 15 241 11.3 16.1 0.00 0.00 0.00 76 1011.4
20260506010005 15 242 11.3 16.1 0.00 0.00 0.00 76 1011.4
20260506005504 15 225 9.7 16.1 0.00 0.00 0.00 76 1011.4
20260506005003 15 242 9.7 17.7 0.00 0.00 0.00 76 1011.3
20260506004512 15 238 11.3 17.7 0.00 0.00 0.00 76 1011.2
20260506004008 15 248 11.3 16.1 0.00 0.00 0.00 76 1011.2
20260506003507 15 202 9.7 16.1 0.00 0.00 0.00 75 1011.1
20260506003017 15 252 9.7 17.7 0.00 0.00 0.00 75 1011.0
20260506002504 15 241 11.3 19.3 0.00 0.00 0.00 75 1010.8
20260506002009 15 241 9.7 19.3 0.00 0.00 0.00 75 1010.7
20260506001520 15 220 9.7 16.1 0.00 0.00 0.00 76 1010.6
20260506001008 15 250 11.3 19.3 0.00 0.00 0.00 76 1010.4
20260506000510 15 244 11.3 19.3 0.00 0.00 0.00 76 1010.3
20260506000026 15 170 11.3 17.7 0.00 0.00 0.00 76 1010.3
20260505235503 15 238 11.3 17.7 0.00 0.00 0.00 76 1010.2
20260505235004 15 242 11.3 16.1 0.00 0.00 0.00 76 1010.1
20260505234508 15 241 11.3 16.1 0.00 0.00 0.00 76 1010.2
20260505234004 15 241 9.7 16.1 0.00 0.00 0.00 76 1010.2
20260505233508 15 231 11.3 17.7 0.00 0.00 0.00 76 1010.1
20260505233008 15 238 11.3 17.7 0.00 0.00 0.00 76 1010.1
20260505232503 15 263 11.3 17.7 0.00 0.00 0.00 76 1010.1
20260505232003 15 229 9.7 16.1 0.00 0.00 0.00 76 1010.2
20260505231532 15 250 9.7 19.3 0.00 0.00 0.00 76 1010.1
20260505231011 15 246 11.3 19.3 0.00 0.00 0.00 76 1010.1
20260505230508 15 242 11.3 16.1 0.00 0.00 0.00 76 1010.0
20260505230026 15 249 9.7 17.7 0.00 0.00 0.00 76 1010.1
20260505225506 15 249 9.7 16.1 0.00 0.00 0.00 76 1010.0
20260505225009 15 236 9.7 16.1 0.00 0.00 0.00 76 1010.0
20260505224524 15 217 9.7 16.1 0.00 0.00 0.00 76 1010.1
20260505224003 15 238 8.0 16.1 0.00 0.00 0.00 75 1009.9
20260505223502 15 237 9.7 16.1 0.00 0.00 0.00 75 1009.9
20260505223009 15 250 9.7 14.5 0.00 0.00 0.00 75 1010.0
20260505222503 15 254 9.7 19.3 0.00 0.00 0.00 75 1009.8
20260505222008 15 246 9.7 19.3 0.00 0.00 0.00 75 1009.8
20260505221514 15 198 11.3 17.7 0.00 0.00 0.00 74 1009.7
20260505221007 15 258 11.3 17.7 0.00 0.00 0.00 74 1009.7
20260505220507 15 234 11.3 17.7 0.00 0.00 0.00 74 1009.7
20260505220022 15 252 9.7 19.3 0.00 0.00 0.00 74 1009.8
20260505215508 15 257 11.3 19.3 0.00 0.00 0.00 74 1009.8
20260505215008 15 247 9.7 17.7 0.00 0.00 0.00 73 1009.9
20260505214524 16 248 11.3 17.7 0.00 0.00 0.00 72 1009.8
20260505214011 16 238 11.3 17.7 0.00 0.00 0.00 72 1009.8
20260505213512 16 233 9.7 16.1 0.00 0.00 0.00 71 1010.0
20260505213034 16 246 8.0 14.5 0.00 0.00 0.00 71 1009.9
20260505212503 16 242 8.0 14.5 0.00 0.00 0.00 71 1009.9
20260505212007 16 248 9.7 14.5 0.00 0.00 0.00 70 1009.8
20260505211513 17 234 8.0 12.9 0.00 0.00 0.00 70 1009.6
20260505211006 17 254 8.0 12.9 0.00 0.00 0.00 70 1009.4
20260505210506 17 242 6.4 12.9 0.00 0.00 0.00 70 1009.4
20260505210016 17 233 8.0 14.5 0.00 0.00 0.00 69 1009.5
20260505205511 17 230 8.0 14.5 0.00 0.00 0.00 69 1009.6
20260505205009 17 218 6.4 11.3 0.00 0.00 0.00 69 1009.5
20260505204521 17 244 6.4 9.7 0.00 0.00 0.00 69 1009.6
20260505204006 18 227 6.4 9.7 0.00 0.00 0.00 68 1009.5
20260505203508 18 234 6.4 12.9 0.00 0.00 0.00 69 1009.6
20260505203030 18 238 6.4 12.9 0.00 0.00 0.00 68 1009.6